Flag for U.S.A. Weather past 2 weeks in Amarillo, Texas, U.S.A.

Now
21 °F

Low clouds.


Feels Like: 8 °F
Forecast: 10 / 27 °F
Wind: 14 mph from South

Location: Amarillo International Airport

Current Time: Feb 28, 2015 at 2:56:47 PM

Latest Report: Feb 28, 2015 at 1:53 PM


Visibility: 10 mi

Pressure: 30.23 "Hg

Humidity: 88%

Dew point: 18 °F

Location of AmarilloLocation

Historic Weather in Amarillo — Graph

°F

Amarillo temperature yesterday

Maximum temperature yesterday: 19 °F (at 12:53 AM)
Minimum temperature yesterday: 11 °F (at 9:53 PM)
Average temperature yesterday: 14 °F

Past Weeks' High & Low Weather Summary

 TemperatureHumidityPressure
High76 °F (Feb 14, 2:53 PM)96% (Feb 17, 3:53 AM)30.66 "Hg (Feb 17, 3:53 AM)
Low11 °F (Feb 23, 6:53 AM)11% (Feb 20, 4:53 PM)29.55 "Hg (Feb 20, 5:53 PM)
Average34 °F67%30.14 "Hg
* Reported Feb 13 1:53 PM — Feb 28 1:53 PM, Amarillo, Weather by CustomWeather, © 2015

Note: Actual official high and low records may vary slightly from our data, if they occured in-between our weather recording intervals... More about our weather records

Advertising

Amarillo weather history for previous 24 hours

 ConditionsComfort  
Time TempWeatherWind HumidityBarometerVisibility
1:53 PM
Sat, Feb 28
21 °FLow clouds.14 mph88%30.23 "Hg10 mi
12:53 PM20 °FLow clouds.12 mph89%30.24 "Hg10 mi
11:53 AM17 °FLow clouds.10 mph88%30.29 "Hg10 mi
10:53 AM16 °FLow clouds.12 mph87%30.29 "Hg9 mi
10:02 AM14 °FIce fog.9 mph92%30.18 "Hg3 mi
9:53 AM13 °FIce fog.9 mph96%30.32 "Hg2 mi
8:53 AM12 °FLight snow. Ice fog.10 mph92%30.32 "Hg1 mi
7:53 AM11 °FIce fog.13 mph92%30.29 "Hg2 mi
6:53 AM11 °FIce fog.12 mph92%30.30 "Hg3 mi
6:02 AM11 °FLight snow. Ice fog.9 mph92%30.15 "Hg2 mi
5:53 AM11 °FIce fog.9 mph92%30.28 "Hg2 mi
4:53 AM12 °FOvercast.10 mph84%30.27 "Hg10 mi
3:53 AM12 °FLight snow. Ice fog.12 mph88%30.28 "Hg6 mi
2:53 AM12 °FLight snow. Ice fog.12 mph84%30.31 "Hg4 mi
1:53 AM11 °FLight snow. Low clouds.10 mph92%30.32 "Hg8 mi
12:53 AM11 °FLight snow. Low clouds.9 mph92%30.34 "Hg7 mi
11:53 PM
Fri, Feb 27
11 °FLight snow. Low clouds.13 mph92%30.34 "Hg7 mi
10:53 PM11 °FLow clouds.13 mph88%30.36 "Hg10 mi
9:53 PM11 °FLight snow. Overcast.13 mph88%30.34 "Hg8 mi
9:04 PM12 °FMostly cloudy.16 mph84%30.22 "Hg9 mi
8:53 PM12 °FLight snow. Mostly cloudy.13 mph84%30.36 "Hg9 mi
7:53 PM13 °FLight snow. Mostly cloudy.14 mph84%30.33 "Hg9 mi
6:53 PM13 °FLight snow. Ice fog.13 mph84%30.34 "Hg5 mi
5:53 PM14 °FLight snow. Mostly cloudy.15 mph80%30.31 "Hg2 mi
4:53 PM15 °FLight snow. Mostly cloudy.13 mph77%30.33 "Hg2 mi
4:03 PM15 °FLight snow. Overcast.13 mph80%30.21 "Hg2 mi
3:53 PM15 °FLight snow. Mostly cloudy.13 mph80%30.34 "Hg2 mi
2:53 PM15 °FLight snow. Overcast.9 mph77%30.33 "Hg4 mi
Weather by CustomWeather, © 2015

See weather overviewHow to use our weather pages